STARLINK-3724, 52305

Orbit data source: Space-Track

STARLINK-3724, 52305 is a payload satellite owned by SpaceX/Seattle (US) in LEO that was launched on Thu, 21 Apr 2022 UTC via an FALCON 9 launch vehicle from the Air Force Eastern Test Range (AFETR). Payload-class satellites include a variety of spacecraft equipped with specific instruments for various scientific and technological missions. These include communications satellites like Starlink; space stations such as the ISS; scientific satellites like the Hubble; Earth observation satellites from companies like Planet Labs, Umbra, and HawkEye 360; GPS; miniature CubeSats for education and research; and military/defense satellites.

Loading next visibility...
Identifier
52305, 2022-041AW
Orbit
LEO
Country
Flag of USUS
Related business
Manufacturer
SpaceX/Seattle
Mission
Operational Commercial Communications
Bus & Motor
STARLINK, Unknown motor
Mass
297 kg wet, ~275 kg dry
Launch date (UTC)
2022-04-21 (4 years ago)
Launch vehicle
FALCON 9
Launch site
Air Force Eastern Test Range (AFETR)
Object type
Payload
Rocket body
Debris
Shape & HBR
Box + 1 Pan, 10.1 m
Radar Cross Section
11.087 m², Large (>1 m²)

Expand to show TLE details & history
Last TLE update: 17 hours ago

TLE from 17 hours ago
0 STARLINK-3724
1 52305U 22041AW  26175.17907215  .00001129  00000-0  89039-4 0  9993
2 52305  53.1595 341.0390 0001095  93.8192 266.2925 15.08824065230581
Epoch: 2026-06-24T04:17Z
TLE epoch observation values (Epoch: 2026-06-24T04:17:51.833Z)
Latitude
-0.00001°
Longitude
4.23302°
Altitude
540.732 km
Speed
7.593 km/s
True Right ascension
22h 44m 09s
True Declination
0° 00' 00"
Sunlit
Object was in daylight at epoch
Visualization orbit readout
Latitude
Unknown
Longitude
Unknown
Altitude
Unknown
Speed
Unknown
Apparent Right ascension
Unknown
Apparent Declination
Unknown
Sunlit
N/A
Visualization observer readout
Local Sidereal Time
08:55:00
Azimuth
Unknown
Elevation
Unknown
Doppler factor
Unknown
Orbital elements
Apogee altitude
540.804 km
Perigee altitude
539.289 km
Semi-major axis
6,918.183 km
Eccentricity
0.00011
Inclination
53.1595°
RAAN
341.039°
Arg. of periapsis
93.8192°
True anomaly
266.27998°
Mean anomaly
266.2925°
Eccentric anomaly
266.28624°
Mean motion
3.77186 °/min
Orbital period
95.44 mins
BSTAR
0.000089039
Loading maneuver chart data...
Computing Atmospheric mass density...

Documentation

Showing up to 5 results
|